| time (UTC) | temp F | wind direction | speed MPH | gust MPH | rain 1hr in | rain 24hr in | rain mn in | humidity % | barometer mb |
| 20260506133828 | 61 | 277 | 2.0 | 6.0 | 0.00 | 0.00 | 0.00 | 69 | 1006.4 |
| 20260506133331 | 62 | 325 | 1.0 | 3.0 | 0.00 | 0.00 | 0.00 | 68 | 1006.2 |
| 20260506132829 | 62 | 339 | 1.0 | 3.0 | 0.00 | 0.00 | 0.00 | 67 | 1005.9 |
| 20260506132331 | 61 | 352 | 0.0 | 3.0 | 0.00 | 0.00 | 0.00 | 69 | 1005.8 |
| 20260506131831 | 62 | 28 | 0.0 | 3.0 | 0.00 | 0.00 | 0.00 | 69 | 1005.5 |
| 20260506131332 | 62 | 19 | 1.0 | 2.0 | 0.00 | 0.00 | 0.00 | 69 | 1005.6 |
| 20260506130831 | 63 | 350 | 0.0 | 2.0 | 0.00 | 0.00 | 0.00 | 65 | 1005.7 |
| 20260506130343 | 62 | 5 | 0.0 | 1.0 | 0.00 | 0.00 | 0.00 | 67 | 1005.8 |
| 20260506125828 | 61 | 5 | 0.0 | 1.0 | 0.00 | 0.00 | 0.00 | 67 | 1005.7 |
| 20260506124829 | 62 | 5 | 1.0 | 4.0 | 0.00 | 0.00 | 0.00 | 67 | 1005.9 |
| 20260506124329 | 62 | 32 | 0.0 | 3.0 | 0.00 | 0.00 | 0.00 | 68 | 1005.9 |
| 20260506123829 | 62 | 43 | 1.0 | 3.0 | 0.00 | 0.00 | 0.00 | 69 | 1005.9 |
| 20260506123329 | 62 | 37 | 0.0 | 3.0 | 0.00 | 0.00 | 0.00 | 70 | 1006.1 |
| 20260506122828 | 62 | 38 | 1.0 | 3.0 | 0.00 | 0.00 | 0.00 | 68 | 1006.0 |
| 20260506122328 | 62 | 106 | 2.0 | 4.0 | 0.00 | 0.00 | 0.00 | 68 | 1006.0 |
| 20260506121831 | 62 | 103 | 2.0 | 4.0 | 0.00 | 0.00 | 0.00 | 69 | 1006.0 |
| 20260506120830 | 62 | 115 | 2.0 | 6.0 | 0.00 | 0.00 | 0.00 | 68 | 1006.1 |
| 20260506115829 | 62 | 95 | 0.0 | 3.0 | 0.00 | 0.00 | 0.00 | 67 | 1006.4 |
| 20260506114832 | 62 | 88 | 0.0 | 3.0 | 0.00 | 0.00 | 0.00 | 69 | 1006.5 |
| 20260506114329 | 62 | 86 | 2.0 | 3.0 | 0.00 | 0.00 | 0.00 | 68 | 1006.4 |
| 20260506113829 | 62 | 28 | 0.0 | 4.0 | 0.00 | 0.00 | 0.00 | 69 | 1006.5 |
| 20260506113329 | 62 | 27 | 0.0 | 4.0 | 0.00 | 0.00 | 0.00 | 71 | 1006.5 |
| 20260506112328 | 63 | 28 | 1.0 | 4.0 | 0.00 | 0.00 | 0.00 | 64 | 1006.8 |
| 20260506111829 | 65 | 94 | 1.0 | 4.0 | 0.00 | 0.00 | 0.00 | 67 | 1006.7 |
| 20260506111329 | 65 | 103 | 2.0 | 6.0 | 0.00 | 0.00 | 0.00 | 65 | 1006.7 |
| 20260506110329 | 64 | 99 | 2.0 | 6.0 | 0.00 | 0.00 | 0.00 | 66 | 1007.0 |
| 20260506105328 | 62 | 104 | 1.0 | 3.0 | 0.00 | 0.00 | 0.00 | 72 | 1007.1 |
| 20260506104830 | 61 | 128 | 0.0 | 3.0 | 0.00 | 0.00 | 0.00 | 67 | 1007.2 |
| 20260506104331 | 61 | 95 | 1.0 | 3.0 | 0.00 | 0.00 | 0.00 | 71 | 1007.2 |
| 20260506103829 | 60 | 31 | 0.0 | 3.0 | 0.00 | 0.00 | 0.00 | 71 | 1007.1 |
| 20260506103329 | 60 | 32 | 0.0 | 3.0 | 0.00 | 0.00 | 0.00 | 70 | 1007.0 |
| 20260506102828 | 60 | 22 | 2.0 | 3.0 | 0.00 | 0.00 | 0.00 | 72 | 1007.1 |
| 20260506102329 | 60 | 109 | 0.0 | 6.0 | 0.00 | 0.00 | 0.00 | 72 | 1007.3 |
| 20260506101329 | 61 | 110 | 1.0 | 3.0 | 0.00 | 0.00 | 0.00 | 73 | 1007.4 |
| 20260506095828 | 62 | 30 | 0.0 | 3.0 | 0.00 | 0.00 | 0.00 | 71 | 1007.4 |
| 20260506095329 | 61 | 17 | 0.0 | 5.0 | 0.00 | 0.00 | 0.00 | 69 | 1007.5 |
| 20260506094831 | 61 | 5 | 1.0 | 5.0 | 0.00 | 0.00 | 0.00 | 69 | 1007.6 |
| 20260506094330 | 60 | 320 | 0.0 | 3.0 | 0.00 | 0.00 | 0.00 | 71 | 1007.6 |
| 20260506093830 | 60 | 319 | 1.0 | 3.0 | 0.00 | 0.00 | 0.00 | 71 | 1007.7 |
| 20260506093331 | 59 | 290 | 0.0 | 3.0 | 0.00 | 0.00 | 0.00 | 73 | 1007.7 |
| 20260506092829 | 59 | 5 | 1.0 | 3.0 | 0.00 | 0.00 | 0.00 | 74 | 1007.4 |
| 20260506092332 | 59 | 264 | 0.0 | 3.0 | 0.00 | 0.00 | 0.00 | 73 | 1007.3 |
| 20260506091831 | 59 | 329 | 0.0 | 3.0 | 0.00 | 0.00 | 0.00 | 77 | 1007.6 |
| 20260506091326 | 59 | 313 | 0.0 | 2.0 | 0.00 | 0.00 | 0.00 | 75 | 1007.4 |
| 20260506085819 | 59 | 321 | 0.0 | 1.0 | 0.00 | 0.00 | 0.00 | 73 | 1007.7 |
| 20260506085318 | 59 | 332 | 0.0 | 3.0 | 0.00 | 0.00 | 0.00 | 72 | 1007.7 |
| 20260506084817 | 59 | 348 | 1.0 | 3.0 | 0.00 | 0.00 | 0.00 | 72 | 1007.6 |
| 20260506084316 | 59 | 297 | 1.0 | 3.0 | 0.00 | 0.00 | 0.00 | 71 | 1007.7 |
| 20260506083813 | 59 | 321 | 1.0 | 3.0 | 0.00 | 0.00 | 0.00 | 72 | 1007.7 |
| 20260506082811 | 59 | 318 | 1.0 | 3.0 | 0.00 | 0.00 | 0.00 | 71 | 1007.6 |
| 20260506082310 | 59 | 9 | 1.0 | 3.0 | 0.00 | 0.00 | 0.00 | 73 | 1007.5 |
| 20260506081308 | 58 | 25 | 0.0 | 3.0 | 0.00 | 0.00 | 0.00 | 74 | 1007.6 |
| 20260506080310 | 58 | 44 | 0.0 | 1.0 | 0.00 | 0.00 | 0.00 | 75 | 1007.5 |
| 20260506073301 | 57 | 306 | 0.0 | 2.0 | 0.00 | 0.00 | 0.00 | 75 | 1007.8 |
| 20260506072800 | 57 | 294 | 1.0 | 2.0 | 0.00 | 0.00 | 0.00 | 75 | 1008.0 |
| 20260506072300 | 57 | 98 | 0.0 | 1.0 | 0.00 | 0.00 | 0.00 | 76 | 1008.0 |
| 20260506071802 | 56 | 98 | 0.0 | 0.0 | 0.00 | 0.00 | 0.00 | 77 | 1008.1 |
| 20260506071303 | 56 | 98 | 0.0 | 0.0 | 0.00 | 0.00 | 0.00 | 78 | 1008.2 |
| 20260506070757 | 56 | 98 | 0.0 | 0.0 | 0.00 | 0.00 | 0.00 | 79 | 1008.2 |
| 20260506070258 | 56 | 98 | 0.0 | 0.0 | 0.00 | 0.00 | 0.00 | 80 | 1008.2 |
| 20260506062248 | 54 | 99 | 2.0 | 3.0 | 0.00 | 0.00 | 0.00 | 82 | 1008.2 |
| 20260506061242 | 54 | 87 | 1.0 | 3.0 | 0.00 | 0.00 | 0.00 | 84 | 1008.2 |
| 20260506060741 | 53 | 123 | 0.0 | 2.0 | 0.00 | 0.00 | 0.00 | 86 | 1008.2 |
| 20260506060241 | 53 | 122 | 1.0 | 2.0 | 0.00 | 0.00 | 0.00 | 86 | 1008.2 |
| 20260506050722 | 47 | 68 | 0.0 | 0.0 | 0.00 | 0.00 | 0.00 | 92 | 1008.3 |
| 20260506050223 | 47 | 68 | 0.0 | 0.0 | 0.00 | 0.00 | 0.00 | 92 | 1008.3 |
| 20260506044715 | 47 | 68 | 0.0 | 0.0 | 0.00 | 0.00 | 0.00 | 90 | 1008.2 |
| 20260506044214 | 48 | 68 | 0.0 | 0.0 | 0.00 | 0.01 | 0.00 | 89 | 1008.2 |
| 20260506043711 | 48 | 68 | 0.0 | 0.0 | 0.00 | 0.01 | 0.00 | 88 | 1008.1 |
| 20260506043209 | 49 | 68 | 0.0 | 0.0 | 0.00 | 0.01 | 0.00 | 88 | 1008.3 |
| 20260506042712 | 49 | 68 | 0.0 | 0.0 | 0.00 | 0.01 | 0.00 | 87 | 1008.3 |
| 20260506042208 | 49 | 68 | 0.0 | 1.0 | 0.00 | 0.01 | 0.00 | 87 | 1008.2 |
| 20260506041706 | 49 | 68 | 0.0 | 1.0 | 0.00 | 0.01 | 0.00 | 87 | 1008.3 |
| 20260506041206 | 49 | 267 | 0.0 | 1.0 | 0.00 | 0.01 | 0.00 | 87 | 1008.4 |
| 20260506040704 | 49 | 246 | 0.0 | 1.0 | 0.00 | 0.01 | 0.00 | 87 | 1008.2 |
| 20260506040202 | 49 | 246 | 0.0 | 1.0 | 0.00 | 0.01 | 0.00 | 87 | 1008.3 |
| 20260506035706 | 49 | 246 | 0.0 | 1.0 | 0.00 | 0.01 | 0.00 | 86 | 1008.4 |
| 20260506035205 | 50 | 266 | 0.0 | 4.0 | 0.00 | 0.01 | 0.00 | 85 | 1008.4 |
| 20260506034202 | 51 | 261 | 1.0 | 6.0 | 0.00 | 0.01 | 0.00 | 84 | 1008.5 |
| 20260506033704 | 51 | 280 | 2.0 | 6.0 | 0.00 | 0.01 | 0.00 | 85 | 1008.7 |
| 20260506033201 | 50 | 270 | 1.0 | 6.0 | 0.00 | 0.01 | 0.00 | 85 | 1008.7 |
| 20260506032702 | 50 | 217 | 0.0 | 4.0 | 0.00 | 0.01 | 0.00 | 86 | 1008.7 |
| 20260506031702 | 50 | 254 | 1.0 | 4.0 | 0.00 | 0.01 | 0.00 | 84 | 1008.8 |
| 20260506031201 | 50 | 243 | 0.0 | 4.0 | 0.00 | 0.01 | 0.00 | 84 | 1008.6 |
| 20260506025658 | 51 | 236 | 3.0 | 5.0 | 0.00 | 0.01 | 0.00 | 84 | 1009.0 |
| 20260506024656 | 51 | 228 | 1.0 | 5.0 | 0.00 | 0.01 | 0.00 | 84 | 1009.1 |
| 20260506024156 | 51 | 238 | 2.0 | 5.0 | 0.00 | 0.01 | 0.00 | 84 | 1009.2 |
| 20260506023655 | 51 | 248 | 2.0 | 4.0 | 0.00 | 0.01 | 0.00 | 85 | 1009.2 |
| 20260506023155 | 50 | 251 | 1.0 | 2.0 | 0.00 | 0.01 | 0.00 | 86 | 1009.2 |
| 20260506022649 | 50 | 236 | 0.0 | 3.0 | 0.00 | 0.01 | 0.00 | 86 | 1009.1 |
| 20260506021640 | 50 | 241 | 0.0 | 2.0 | 0.00 | 0.01 | 0.00 | 87 | 1008.8 |
| 20260506021140 | 50 | 241 | 0.0 | 0.0 | 0.00 | 0.01 | 0.00 | 87 | 1009.0 |
| 20260506020638 | 50 | 241 | 0.0 | 0.0 | 0.00 | 0.01 | 0.00 | 86 | 1009.1 |
| 20260506020136 | 50 | 241 | 0.0 | 0.0 | 0.00 | 0.01 | 0.00 | 86 | 1009.1 |
| 20260506015131 | 50 | 202 | 0.0 | 3.0 | 0.00 | 0.01 | 0.00 | 86 | 1009.1 |
| 20260506014122 | 50 | 249 | 1.0 | 2.0 | 0.00 | 0.01 | 0.00 | 86 | 1009.1 |
| 20260506013621 | 50 | 250 | 0.0 | 2.0 | 0.00 | 0.01 | 0.00 | 86 | 1009.2 |
| 20260506013119 | 50 | 244 | 0.0 | 2.0 | 0.00 | 0.01 | 0.00 | 86 | 1009.3 |
| 20260506012618 | 50 | 214 | 0.0 | 2.0 | 0.00 | 0.01 | 0.00 | 86 | 1009.3 |
| 20260506011615 | 50 | 205 | 0.0 | 2.0 | 0.00 | 0.01 | 0.00 | 86 | 1009.4 |
| 20260506011113 | 50 | 222 | 1.0 | 4.0 | 0.00 | 0.01 | 0.00 | 86 | 1009.5 |
| 20260506010610 | 50 | 211 | 0.0 | 4.0 | 0.00 | 0.01 | 0.00 | 86 | 1009.5 |
| 20260506010110 | 50 | 217 | 1.0 | 3.0 | 0.00 | 0.01 | 0.00 | 86 | 1009.5 |
| 20260506005607 | 50 | 210 | 1.0 | 5.0 | 0.00 | 0.01 | 0.00 | 86 | 1009.4 |
| 20260506005104 | 51 | 188 | 3.0 | 5.0 | 0.00 | 0.01 | 0.00 | 85 | 1009.5 |
| 20260506004103 | 51 | 213 | 1.0 | 4.0 | 0.00 | 0.01 | 0.00 | 84 | 1009.4 |
| 20260506003602 | 52 | 244 | 2.0 | 5.0 | 0.00 | 0.01 | 0.00 | 83 | 1009.5 |
| 20260506003102 | 52 | 236 | 2.0 | 5.0 | 0.00 | 0.01 | 0.00 | 83 | 1009.5 |
| 20260506002605 | 52 | 217 | 2.0 | 3.0 | 0.00 | 0.01 | 0.00 | 83 | 1009.5 |
| 20260506002102 | 52 | 229 | 1.0 | 3.0 | 0.00 | 0.01 | 0.00 | 83 | 1009.7 |
| 20260506001601 | 52 | 206 | 1.0 | 4.0 | 0.00 | 0.01 | 0.00 | 83 | 1009.6 |
| 20260506001103 | 52 | 242 | 1.0 | 5.0 | 0.00 | 0.01 | 0.00 | 83 | 1009.7 |
| 20260506000602 | 52 | 246 | 1.0 | 5.0 | 0.00 | 0.01 | 0.00 | 83 | 1009.7 |
| 20260506000114 | 52 | 236 | 1.0 | 4.0 | 0.00 | 0.01 | 0.00 | 83 | 1009.7 |
| 20260505235600 | 52 | 232 | 2.0 | 5.0 | 0.00 | 0.01 | 0.00 | 83 | 1009.8 |
| 20260505234600 | 53 | 230 | 3.0 | 5.0 | 0.00 | 0.01 | 0.00 | 83 | 1009.9 |
| 20260505233601 | 53 | 234 | 1.0 | 3.0 | 0.00 | 0.01 | 0.00 | 83 | 1010.0 |
| 20260505233101 | 53 | 233 | 1.0 | 3.0 | 0.00 | 0.01 | 0.00 | 83 | 1010.0 |
| 20260505232600 | 53 | 246 | 0.0 | 3.0 | 0.00 | 0.01 | 0.00 | 83 | 1010.1 |
| 20260505232101 | 53 | 240 | 0.0 | 3.0 | 0.00 | 0.01 | 0.00 | 83 | 1010.1 |
| 20260505231600 | 53 | 225 | 1.0 | 3.0 | 0.00 | 0.01 | 0.00 | 83 | 1010.1 |
| 20260505231102 | 53 | 220 | 1.0 | 3.0 | 0.00 | 0.01 | 0.00 | 84 | 1010.2 |
| 20260505230602 | 53 | 207 | 2.0 | 5.0 | 0.00 | 0.01 | 0.00 | 84 | 1010.3 |
| 20260505230115 | 53 | 196 | 2.0 | 5.0 | 0.00 | 0.01 | 0.00 | 83 | 1010.3 |
| 20260505225603 | 53 | 209 | 1.0 | 3.0 | 0.00 | 0.01 | 0.00 | 82 | 1010.4 |
| 20260505224602 | 53 | 214 | 1.0 | 4.0 | 0.00 | 0.01 | 0.00 | 82 | 1010.4 |
| 20260505224103 | 53 | 219 | 1.0 | 4.0 | 0.00 | 0.01 | 0.00 | 83 | 1010.3 |
| 20260505223102 | 53 | 225 | 2.0 | 5.0 | 0.00 | 0.01 | 0.00 | 83 | 1010.1 |
| 20260505222602 | 53 | 204 | 2.0 | 5.0 | 0.00 | 0.01 | 0.00 | 82 | 1010.2 |
| 20260505222101 | 53 | 252 | 2.0 | 5.0 | 0.00 | 0.01 | 0.00 | 82 | 1010.3 |
| 20260505221604 | 54 | 232 | 2.0 | 7.0 | 0.00 | 0.01 | 0.00 | 82 | 1010.3 |
| 20260505221116 | 54 | 261 | 3.0 | 9.0 | 0.00 | 0.02 | 0.00 | 82 | 1010.4 |
| 20260505215601 | 55 | 255 | 2.0 | 8.0 | 0.00 | 0.02 | 0.02 | 80 | 1010.2 |
| 20260505215106 | 55 | 231 | 3.0 | 8.0 | 0.00 | 0.02 | 0.02 | 80 | 1010.1 |
| 20260505214600 | 55 | 269 | 3.0 | 10.0 | 0.00 | 0.02 | 0.02 | 80 | 1010.0 |
| 20260505214101 | 56 | 228 | 4.0 | 10.0 | 0.00 | 0.02 | 0.02 | 81 | 1009.9 |
| 20260505213600 | 56 | 242 | 3.0 | 8.0 | 0.00 | 0.02 | 0.02 | 81 | 1009.7 |
| 20260505213102 | 56 | 240 | 2.0 | 8.0 | 0.00 | 0.02 | 0.02 | 81 | 1009.8 |
| 20260505212115 | 56 | 257 | 0.0 | 5.0 | 0.00 | 0.02 | 0.02 | 80 | 1009.7 |
| 20260505211601 | 56 | 223 | 1.0 | 5.0 | 0.00 | 0.02 | 0.02 | 79 | 1009.8 |
| 20260505211103 | 57 | 273 | 2.0 | 5.0 | 0.00 | 0.02 | 0.02 | 79 | 1009.9 |
| 20260505210604 | 57 | 308 | 2.0 | 7.0 | 0.00 | 0.02 | 0.02 | 80 | 1009.9 |
| 20260505210106 | 57 | 274 | 2.0 | 8.0 | 0.00 | 0.02 | 0.02 | 80 | 1009.8 |
| 20260505204608 | 57 | 250 | 2.0 | 12.0 | 0.00 | 0.02 | 0.02 | 82 | 1010.0 |
| 20260505204101 | 57 | 318 | 2.0 | 12.0 | 0.00 | 0.02 | 0.02 | 82 | 1009.8 |
| 20260505203603 | 56 | 291 | 2.0 | 6.0 | 0.00 | 0.02 | 0.02 | 82 | 1009.9 |
| 20260505203101 | 56 | 215 | 1.0 | 6.0 | 0.00 | 0.04 | 0.02 | 81 | 1010.0 |
| 20260505202108 | 56 | 234 | 3.0 | 8.0 | 0.00 | 0.06 | 0.02 | 80 | 1009.9 |
| 20260505201600 | 56 | 243 | 1.0 | 5.0 | 0.00 | 0.09 | 0.02 | 81 | 1009.9 |
| 20260505201105 | 56 | 223 | 1.0 | 5.0 | 0.00 | 0.11 | 0.02 | 81 | 1009.8 |
| 20260505200603 | 56 | 224 | 1.0 | 4.0 | 0.00 | 0.12 | 0.02 | 81 | 1009.7 |
| 20260505195601 | 56 | 254 | 0.0 | 2.0 | 0.00 | 0.13 | 0.02 | 83 | 1009.5 |
| 20260505195101 | 56 | 266 | 0.0 | 3.0 | 0.00 | 0.13 | 0.02 | 83 | 1009.3 |
| 20260505194601 | 56 | 266 | 0.0 | 3.0 | 0.00 | 0.15 | 0.02 | 82 | 1009.2 |
| 20260505194103 | 56 | 226 | 1.0 | 3.0 | 0.00 | 0.16 | 0.02 | 82 | 1009.2 |
| 20260505193601 | 56 | 246 | 1.0 | 3.0 | 0.00 | 0.17 | 0.02 | 82 | 1009.1 |
| 20260505193102 | 56 | 262 | 1.0 | 3.0 | 0.00 | 0.19 | 0.02 | 82 | 1009.1 |
| 20260505192600 | 56 | 291 | 0.0 | 3.0 | 0.00 | 0.19 | 0.02 | 82 | 1009.0 |
| 20260505192102 | 56 | 302 | 0.0 | 4.0 | 0.00 | 0.19 | 0.02 | 82 | 1009.1 |
| 20260505191601 | 56 | 288 | 2.0 | 4.0 | 0.00 | 0.19 | 0.02 | 81 | 1008.8 |
| 20260505191104 | 56 | 277 | 1.0 | 4.0 | 0.00 | 0.20 | 0.02 | 81 | 1008.7 |
| 20260505190602 | 57 | 278 | 1.0 | 5.0 | 0.00 | 0.20 | 0.02 | 80 | 1008.6 |
| 20260505190107 | 57 | 296 | 2.0 | 5.0 | 0.00 | 0.20 | 0.02 | 81 | 1008.5 |
| 20260505185103 | 57 | 306 | 1.0 | 4.0 | 0.00 | 0.20 | 0.02 | 83 | 1008.3 |
| 20260505184601 | 57 | 290 | 1.0 | 3.0 | 0.00 | 0.20 | 0.02 | 85 | 1008.3 |
| 20260505183602 | 57 | 287 | 2.0 | 3.0 | 0.00 | 0.20 | 0.02 | 86 | 1008.1 |
| 20260505182100 | 57 | 265 | 0.0 | 0.0 | 0.00 | 0.20 | 0.02 | 83 | 1007.7 |
| 20260505181601 | 57 | 265 | 0.0 | 0.0 | 0.00 | 0.20 | 0.02 | 82 | 1007.7 |
| 20260505181101 | 57 | 265 | 0.0 | 0.0 | 0.00 | 0.20 | 0.02 | 81 | 1007.7 |
| 20260505180600 | 58 | 265 | 0.0 | 1.0 | 0.00 | 0.20 | 0.02 | 80 | 1007.7 |
| 20260505175559 | 60 | 301 | 0.0 | 2.0 | 0.00 | 0.20 | 0.02 | 74 | 1007.8 |
| 20260505174558 | 60 | 240 | 1.0 | 2.0 | 0.00 | 0.20 | 0.02 | 72 | 1007.9 |
| 20260505174058 | 60 | 241 | 0.0 | 2.0 | 0.00 | 0.20 | 0.02 | 73 | 1008.0 |
| 20260505173558 | 60 | 259 | 0.0 | 4.0 | 0.00 | 0.20 | 0.02 | 72 | 1008.0 |
| 20260505173052 | 60 | 288 | 2.0 | 4.0 | 0.00 | 0.20 | 0.02 | 72 | 1008.2 |
| 20260505171546 | 61 | 295 | 1.0 | 6.0 | 0.00 | 0.20 | 0.02 | 70 | 1007.9 |
| 20260505170543 | 62 | 325 | 2.0 | 7.0 | 0.00 | 0.20 | 0.02 | 68 | 1007.9 |
| 20260505170038 | 62 | 276 | 2.0 | 9.0 | 0.00 | 0.20 | 0.02 | 68 | 1007.9 |
| 20260505164956 | 63 | 294 | 2.0 | 6.0 | 0.00 | 0.20 | 0.02 | 67 | 1007.9 |
| 20260505164458 | 62 | 331 | 2.0 | 8.0 | 0.00 | 0.20 | 0.02 | 67 | 1007.8 |
| 20260505163952 | 63 | 17 | 2.0 | 8.0 | 0.00 | 0.20 | 0.02 | 67 | 1007.8 |
| 20260505163451 | 63 | 296 | 2.0 | 6.0 | 0.00 | 0.20 | 0.02 | 66 | 1007.9 |
| 20260505162950 | 63 | 313 | 2.0 | 6.0 | 0.00 | 0.20 | 0.02 | 66 | 1007.8 |
| 20260505162445 | 63 | 355 | 1.0 | 7.0 | 0.00 | 0.20 | 0.02 | 66 | 1007.8 |
| 20260505161943 | 63 | 288 | 3.0 | 9.0 | 0.00 | 0.20 | 0.02 | 66 | 1007.9 |
| 20260505160942 | 64 | 310 | 6.0 | 11.0 | 0.00 | 0.20 | 0.02 | 63 | 1007.8 |
| 20260505160439 | 65 | 55 | 3.0 | 7.0 | 0.00 | 0.20 | 0.02 | 64 | 1007.8 |
| 20260505152930 | 63 | 342 | 3.0 | 7.0 | 0.00 | 0.20 | 0.02 | 68 | 1007.8 |
| 20260505151428 | 63 | 355 | 2.0 | 6.0 | 0.00 | 0.20 | 0.02 | 68 | 1007.7 |
| 20260505150927 | 63 | 281 | 3.0 | 6.0 | 0.00 | 0.20 | 0.02 | 69 | 1007.7 |
| 20260505150428 | 63 | 320 | 3.0 | 5.0 | 0.00 | 0.20 | 0.02 | 69 | 1007.6 |
| 20260505140405 | 66 | 294 | 4.0 | 10.0 | 0.00 | 0.20 | 0.02 | 64 | 1007.8 |